TimeMDT,TemperatureF,Dew PointF,Humidity,Sea Level PressureIn,VisibilityMPH,Wind Direction,Wind SpeedMPH,Gust SpeedMPH,PrecipitationIn,Events,Conditions,WindDirDegrees,DateUTC
12:53 AM,57.9,34.0,41,30.16,10.0,West,4.6,18.4,N/A,,Clear,260,2012-10-01 06:53:00
1:53 AM,53.1,34.0,48,30.18,10.0,WNW,5.8,-,N/A,,Clear,300,2012-10-01 07:53:00
2:53 AM,54.0,32.0,43,30.19,10.0,WSW,11.5,-,N/A,,Clear,250,2012-10-01 08:53:00
3:53 AM,51.1,32.0,48,30.20,10.0,West,9.2,-,N/A,,Clear,260,2012-10-01 09:53:00
4:53 AM,50.0,32.0,50,30.22,10.0,West,8.1,-,N/A,,Clear,260,2012-10-01 10:53:00
5:53 AM,46.9,32.0,56,30.22,10.0,Calm,Calm,-,N/A,,Clear,0,2012-10-01 11:53:00
6:53 AM,46.9,32.0,56,30.25,10.0,Calm,Calm,-,N/A,,Clear,0,2012-10-01 12:53:00
7:53 AM,43.0,32.0,65,30.28,10.0,ESE,3.5,-,N/A,,Clear,120,2012-10-01 13:53:00
8:53 AM,53.1,33.1,47,30.25,10.0,Calm,Calm,-,N/A,,Clear,0,2012-10-01 14:53:00
9:53 AM,55.9,35.1,45,30.25,10.0,Calm,Calm,-,N/A,,Clear,0,2012-10-01 15:53:00
10:53 AM,60.1,35.1,39,30.22,10.0,NW,4.6,-,N/A,,Clear,310,2012-10-01 16:53:00
11:53 AM,64.0,35.1,34,30.17,10.0,NE,4.6,-,N/A,,Clear,40,2012-10-01 17:53:00
12:53 PM,68.0,35.1,30,30.13,10.0,NNE,6.9,-,N/A,,Clear,30,2012-10-01 18:53:00
1:53 PM,71.1,33.1,25,30.09,10.0,Variable,6.9,-,N/A,,Clear,0,2012-10-01 19:53:00
2:53 PM,72.0,32.0,23,30.06,10.0,North,5.8,-,N/A,,Clear,350,2012-10-01 20:53:00
3:53 PM,73.0,33.1,23,30.02,10.0,Variable,5.8,-,N/A,,Clear,0,2012-10-01 21:53:00
4:53 PM,73.0,33.1,23,29.99,10.0,South,5.8,-,N/A,,Clear,170,2012-10-01 22:53:00
5:53 PM,71.1,34.0,26,29.98,10.0,South,3.5,-,N/A,,Clear,190,2012-10-01 23:53:00
6:53 PM,68.0,33.1,27,29.97,10.0,Calm,Calm,-,N/A,,Clear,0,2012-10-02 00:53:00
7:53 PM,63.0,33.1,33,30.00,9.0,WSW,4.6,-,N/A,,Clear,250,2012-10-02 01:53:00
8:53 PM,61.0,32.0,34,29.97,9.0,WSW,6.9,-,N/A,,Clear,250,2012-10-02 02:53:00
9:53 PM,57.0,32.0,39,29.97,9.0,Calm,Calm,-,N/A,,Clear,0,2012-10-02 03:53:00
10:53 PM,57.0,33.1,40,29.96,10.0,Calm,Calm,-,N/A,,Clear,0,2012-10-02 04:53:00
11:53 PM,50.0,32.0,50,29.95,10.0,SE,3.5,-,N/A,,Clear,130,2012-10-02 05:53:00